Regional Weather Roundup
Issued by NWS Sioux Falls, SD

Home | Current Version | Previous Version | Graphics & Text | Print | Product List | Glossary Off
Versions: 1 2 3 4 5 6 7 8 9 10 11 12 13 14 15 16 17 18 19 20 21 22 23 24 25 26 27 28 29 30 31 32 33 34 35 36 37 38 39 40 41 42 43 44 45 46 47 48 49 50

000
ASUS43 KFSD 281510
RWRFSD

WEATHER ROUNDUP FOR SE SOUTH DAKOTA/SW MINNESOTA/NW IOWA
NATIONAL WEATHER SERVICE SIOUX FALLS SD
1000 AM CDT WED JUN 28 2017

NOTE: "FAIR" INDICATES FEW OR NO CLOUDS BELOW 12,000 FEET WITH NO
SIGNIFICANT WEATHER AND OR OBSTRUCTIONS TO VISIBILITY.


SDZ038>040-050-052>070-281600-
SOUTHEAST SOUTH DAKOTA

CITY           SKY/WX    TMP DP  RH WIND       PRES   REMARKS
BROOKINGS      MOSUNNY   71  62  73 SW14      29.59F
CHAMBERLAIN    MOSUNNY   74  61  63 W14       29.67R
HURON          CLOUDY    72  65  78 W13       29.59F
MADISON        PTSUNNY   66  64  94 W9        29.62S
MITCHELL       CLOUDY    77  62  59 W10       29.61R
SIOUX FALLS    CLOUDY    71  65  81 VRB5      29.62F
WINNER         FAIR      76  57  51 NW13G21   29.71R
YANKTON        SUNNY     75  61  61 SW12      29.65S
$$

MNZ071-072-080-081-089-090-097-098-281600-
SOUTHWEST MINNESOTA

CITY           SKY/WX    TMP DP  RH WIND       PRES   REMARKS
FAIRMONT       CLOUDY    73  64  73 SW12G20   29.64R
JACKSON        CLOUDY    72  63  73 SW22G30   29.64S
LUVERNE        CLOUDY    70  61  73 SW17G23   29.63S
MARSHALL       MOSUNNY   70  65  84 SW21      29.55S
MONTEVIDEO     CLOUDY    66  66 100 SW12      29.52S
PIPESTONE      LGT RAIN  68  64  88 W10       29.63R
REDWOOD FALLS  LGT RAIN  68  64  87 S16       29.55F
TRACY          PTSUNNY   69  65  86 SW21G28   29.59F
WINDOM         CLOUDY    73  64  73 SW22G31   29.61F
WORTHINGTON    CLOUDY    71  64  78 SW22G29   29.62S
$$

IAZ001>003-012>014-020>022-031-032-NEZ013-014-SDZ071-281600-
NORTHWEST IOWA

CITY           SKY/WX    TMP DP  RH WIND       PRES   REMARKS
CHEROKEE       CLOUDY    72  69  89 SW16G24   29.66F
DENISON        MOSUNNY   73  68  83 SW14G29   29.70F
ESTHERVILLE    MOSUNNY   73  66  78 SW21G30   29.62S
LE MARS        CLOUDY    73  68  83 SW21G28   29.66F
ORANGE CITY    CLOUDY    72  68  88 SW20G26   29.65F
SHELDON        MOSUNNY   73  64  73 SW21G29   29.63S
SIOUX CITY     CLOUDY    70  68  93 SW8G18    29.67S
SPENCER        PTSUNNY   74  67  78 SW23G30   29.64S
STORM LAKE     CLOUDY    73  66  78 SW21G35   29.68S
$$

ABBREVIATIONS USED IN REMARKS
   TC - TEMPERATURE IN CELSIUS
  WCI - WIND CHILL INDEX
   HX - HEAT INDEX
  VSB - VISIBILITY





USA.gov is the U.S. government's official web portal to all federal, state and local government web resources and services.